C/2001 M10 ( NEAT )

Japanese version
Home page
Total 6,336 html files since Dec. 4, 1995
Updated on December 3, 2002

---------------------------------------------------------------------

* Profile

Discovery Date June 20, 2001
Magnitude 19.5 mag
Discoverer Near-Earth-Asteroid Tracking Team (Jet Propulsion Laboratory)

* Orbital Elements

Epoch 2001 June 20.0 TT = JDT 2452080.5
T 2001 June 21.3193 TT                                  MPCM
q   5.302844             (2000.0)            P               Q
n   0.0071430      Peri.    5.4908      +0.4807197      +0.7640306
a  26.702311       Node   293.9166      -0.8213711      +0.2205277
e   0.801409       Incl.   28.0815      -0.3070148      +0.6063207
P 138
From 88 observations 2001 June 20-2002 Aug. 30, mean residual 0".6.

* Finding Charts

* Magnitudes Graph

        m1 = 7.5 + 5 log d + 10.0 log r

---------------------------------------------------------------------

The orbital elements are published at the MPC Ephemerides and Orbital Elements.
The charts are made with StellaNavigator Ver.2.0 for Windows (AstroArts / ASCII).
The magnitudes graphs are made with Comet for Windows.

---------------------------------------------------------------------

Copyright(C) 1995-2008 Seiichi Yoshida (comet@aerith.net). All rights reserved.